Location: Robert Brownlee Observatory
(34.2308°N, 117.2089°W)
Time: 23:28:43
(UTC-07:00)

Cosmos 1943 - Visible Passes

Search period start: 26 August 2016 00:00
Search period end: 05 September 2016 00:00
Orbit: 834 x 850 km, 71.0° (Epoch: 26 August)

Date Brightness Start Highest point End Pass type
(mag) Time Alt. Az. Time Alt. Az. Time Alt. Az.
26 Aug 5.4 02:25:32 18° ENE 02:25:32 18° ENE 02:27:37 10° NE visible
26 Aug 3.9 04:07:23 38° NW 04:07:23 38° NW 04:12:13 10° N visible
27 Aug 5.7 02:11:14 15° ENE 02:11:14 15° ENE 02:12:33 10° NE visible
27 Aug 4.1 03:53:04 37° NW 03:53:04 37° NW 03:57:17 10° N visible
28 Aug 5.9 01:56:53 12° ENE 01:56:53 12° ENE 01:57:28 10° NE visible
28 Aug 4.3 03:38:42 34° NNW 03:38:42 34° NNW 03:42:21 10° N visible
29 Aug 4.6 03:24:19 30° NNW 03:24:19 30° NNW 03:27:25 10° N visible
30 Aug 4.9 03:09:53 26° N 03:09:53 26° N 03:12:29 10° N visible
31 Aug 5.1 02:55:26 23° N 02:55:26 23° N 02:57:33 10° N visible
01 Sep 5.4 02:40:56 20° N 02:40:56 20° N 02:42:36 10° N visible
02 Sep 5.6 02:26:25 17° N 02:26:25 17° N 02:27:39 10° NNE visible
03 Sep 5.8 02:11:53 14° N 02:11:53 14° N 02:12:42 10° NNE visible
04 Sep 6.0 01:57:19 12° NNE 01:57:19 12° NNE 01:57:45 10° NNE visible
